Location: Bremen
(53.0793°N, 8.8017°E)
Time: 09:14:38
(UTC+01:00)

Explorer 7 - Pass Details

Date: 30 November 2021
Orbit: 483 x 674 km, 50.3° (Epoch: 17 January)

Event Time Altitude Azimuth Distance (km) Brightness Sun altitude
Rises 07:37:10 0° 214° (SW) 2,755 10.3 -5.5°
Reaches altitude 10° 07:39:51 10° 200° (SSW) 1,823 9.6 -5.2°
Maximum altitude 07:43:02 22° 149° (SSE) 1,203 9.5 -4.7°
Drops below altitude 10° 07:46:06 10° 98° (E) 1,747 10.7 -4.4°
Sets 07:48:36 0° 82° (E) 2,608 11.2 -4.0°
